CZ-6A DEB, 54503

Orbit data source: Space-Track

CZ-6A DEB, 54503 is space debris in SSO originally from a launch on Fri, 11 Nov 2022 UTC launched from the Taiyaun Space Center, China (TSC). Debris objects in space refer to the collection of defunct objects orbiting the Earth. Examples of debris include non-operational satellites, rocket bodies, and fragments generated from explosions, collisions, or faulty payload assembly.

Loading next visibility...
Identifier
54503, 2022-151JF
Orbit
SSO
Country
Flag of CNCN / PRC
Related business
Manufacturer
SAST
Mission
Spacecraft
Bus & Motor
Unknown
Mass
Unknown
Launch date (UTC)
2022-11-11 (4 years ago)
Launch vehicle
Unknown
Launch site
Taiyaun Space Center, China (TSC)
Object type
Payload
Rocket body
Debris
Shape & HBR
Unknown shape, 0.1 m
Radar Cross Section
Medium (>0.1 m² and <1 m²)

Expand to show TLE details & history
Last TLE update: 1 day ago

TLE from 1 day ago
0 CZ-6A DEB
1 54503U 22151JF  26235.40911087  .00000392  00000-0  23304-3 0  9995
2 54503  98.7765 221.1658 0050786 150.8183 209.5844 14.12369931194339
Epoch: 2026-08-23T09:49Z
TLE epoch observation values (Epoch: 2026-08-23T09:49:07.179Z)
Latitude
0.00005°
Longitude
102.1803°
Altitude
886.155 km
Speed
7.393 km/s
True Right ascension
14h 44m 39s
True Declination
0° 00' 00"
Sunlit
Object was in daylight at epoch
Visualization orbit readout
Latitude
Unknown
Longitude
Unknown
Altitude
Unknown
Speed
Unknown
Apparent Right ascension
Unknown
Apparent Declination
Unknown
Sunlit
N/A
Visualization observer readout
Local Sidereal Time
02:50:43
Azimuth
Unknown
Elevation
Unknown
Doppler factor
Unknown
Orbital elements
Apogee altitude
885.146 km
Perigee altitude
811.744 km
Semi-major axis
7,226.582 km
Eccentricity
0.00508
Inclination
98.7765°
RAAN
221.1658°
Arg. of periapsis
150.8183°
True anomaly
209.29866°
Mean anomaly
209.5844°
Eccentric anomaly
209.44137°
Mean motion
3.533 °/min
Orbital period
101.9 mins
BSTAR
0.00023304
Loading maneuver chart data...
Computing Atmospheric mass density...
Loading historical data...
Loading historical data...
Loading historical data...
Loading historical data...
Loading historical data...
Loading historical data...
Loading historical data...

Documentation

Showing up to 5 results
|